Flag for Seychelles Weather past 2 weeks in Victoria, Seychelles

Now
84 °F

Passing clouds.


Feels Like: 96 °F
Forecast: 76 / 85 °F
Wind: No wind

Location: National Airport

Current Time: Apr 2, 2015 at 12:08:51 PM

Latest Report: Apr 2, 2015 at 11:00 AM


Visibility: N/A

Pressure: 29.86 "Hg

Humidity: 84%

Dew point: 79 °F

Location of VictoriaLocation

Historic Weather in Victoria — Graph

°F

Victoria temperature yesterday

Maximum temperature yesterday: 90 °F (at 10:00 AM)
Minimum temperature yesterday: 77 °F (at 11:00 PM)
Average temperature yesterday: 82 °F

Past Weeks' High & Low Weather Summary

 TemperatureHumidityPressure
High91 °F (Mar 27, 3:00 PM)100% (Mar 25, 6:00 PM)29.92 "Hg (Mar 25, 6:00 PM)
Low77 °F (Mar 18, 9:00 PM)52% (Mar 29, 12:00 PM)29.74 "Hg (Apr 1, 5:00 AM)
Average84 °F78%29.84 "Hg
* Reported Mar 18 11:00 AM — Apr 2 11:00 AM, Victoria, Weather by CustomWeather, © 2015

Note: Actual official high and low records may vary slightly from our data, if they occured in-between our weather recording intervals... More about our weather records

Advertising

Victoria weather history for previous 24 hours

 ConditionsComfort  
Time TempWeatherWind HumidityBarometerVisibility
11:00 AM
Thu, Apr 2
84 °FPassing clouds.No wind84%29.86 "HgN/A
10:00 AM82 °FSprinkles. Passing clouds.No wind89%29.89 "HgN/A
9:00 AM82 °FSprinkles. Scattered clouds.5 mph84%29.86 "HgN/A
8:00 AM81 °FPassing clouds.5 mph89%29.86 "HgN/A
7:00 AM79 °FScattered clouds.No wind94%29.83 "HgN/A
6:00 AM81 °FSprinkles. Passing clouds.No wind89%29.80 "HgN/A
5:00 AM79 °FSprinkles. Passing clouds.No wind94%29.77 "HgN/A
4:00 AM82 °FSprinkles. Passing clouds.No wind79%29.80 "HgN/A
3:00 AM82 °FPassing clouds.No wind79%29.80 "HgN/A
2:00 AM81 °FPassing clouds.No wind84%29.80 "HgN/A
1:00 AM81 °FPassing clouds.17 mph79%29.80 "HgN/A
12:00 AM79 °FSprinkles. Passing clouds.21 mph84%29.83 "HgN/A
11:00 PM
Wed, Apr 1
77 °FRain showers. Passing clouds.14 mph94%29.86 "HgN/A
10:00 PM81 °FSprinkles. Partly cloudy.No wind89%29.86 "HgN/A
9:00 PM81 °FPassing clouds.No wind89%29.86 "HgN/A
8:00 PM82 °FThunderstorms. Passing clouds.5 mph79%29.83 "HgN/A
7:00 PM82 °FPassing clouds.12 mph79%29.77 "HgN/A
6:00 PM82 °FPartly sunny.9 mph74%29.80 "HgN/A
5:00 PM82 °FSprinkles. Partly sunny.12 mph74%29.77 "HgN/A
4:00 PM82 °FSprinkles. Partly sunny.15 mph84%29.74 "HgN/A
3:00 PM82 °FSprinkles. Partly sunny.6 mph70%29.74 "HgN/A
2:00 PM84 °FPartly sunny.5 mph79%29.77 "HgN/A
1:00 PMN/AScattered clouds.2 mphN/AN/AN/A
12:00 PMN/ASprinkles.12 mphN/AN/AN/A
Weather by CustomWeather, © 2015

See weather overviewHow to use our weather pages